,,,PA_Meas_PMT16A,,PR_Meas_QMR101_102,,RH_Meas_QMH101,,SR_Meas_QMS101,,TA_Meas_QMH101,,GenWind,,GenWind,
date,time,status,PA,status,PR,status,RH,status,SR,status,TA,status,DirAvg,status,SpdAvg,
2009-10-29, 00:00:04,VALID,1002.93,VALID,0,VALID,76.182,VALID,0,VALID,27.1311,VALID,359,VALID,1.5668,
2009-10-29, 00:01:04,VALID,1002.95,VALID,0,VALID,76.3193,VALID,0,VALID,27.1311,VALID,345,VALID,1.2207,
2009-10-29, 00:02:04,VALID,1002.95,VALID,0,VALID,76.4414,VALID,0,VALID,27.0706,VALID,353,VALID,1.01602,
2009-10-29, 00:03:04,VALID,1002.96,VALID,0,VALID,76.4795,VALID,0,VALID,27.0726,VALID,357,VALID,0.994531,
2009-10-29, 00:04:04,VALID,1002.93,VALID,0,VALID,76.5711,VALID,0,VALID,27.0726,VALID,344,VALID,1.41328,
2009-10-29, 00:05:04,VALID,1002.94,VALID,0,VALID,76.8915,VALID,0,VALID,27.0531,VALID,352,VALID,0.557031,
2009-10-29, 00:06:04,VALID,1002.92,VALID,0,VALID,76.6016,VALID,0,VALID,27.0142,VALID,356,VALID,1.90703,
2009-10-29, 00:07:04,VALID,1002.9,VALID,0,VALID,76.8686,VALID,0,VALID,27.0357,VALID,353,VALID,1.07031,
2009-10-29, 00:08:04,VALID,1002.86,VALID,0,VALID,76.7999,VALID,0,VALID,27.0552,VALID,349,VALID,1.21133,
2009-10-29, 00:09:04,VALID,1002.81,VALID,0,VALID,76.7542,VALID,0,VALID,27.0142,VALID,347,VALID,0.815234,
2009-10-29, 00:10:04,VALID,1002.78,VALID,0,VALID,76.7847,VALID,0,VALID,26.9926,VALID,353,VALID,1.0375,
2009-10-29, 00:11:04,VALID,1002.77,VALID,0,VALID,76.5711,VALID,0,VALID,26.9947,VALID,347,VALID,1.39453,
2009-10-29, 00:12:04,VALID,1002.76,VALID,0,VALID,76.9754,VALID,0,VALID,26.9947,VALID,1,VALID,0.730078,
2009-10-29, 00:13:04,VALID,1002.78,VALID,0,VALID,76.9144,VALID,0,VALID,26.9557,VALID,355,VALID,1.23438,
2009-10-29, 00:14:04,VALID,1002.78,VALID,0,VALID,76.8152,VALID,0,VALID,26.9557,VALID,342,VALID,1.18711,
2009-10-29, 00:15:04,VALID,1002.75,VALID,0,VALID,76.9907,VALID,0,VALID,26.9557,VALID,348,VALID,0.728906,
2009-10-29, 00:16:04,VALID,1002.73,VALID,0,VALID,77.0975,VALID,0,VALID,26.9557,VALID,351,VALID,1.04844,
2009-10-29, 00:17:04,VALID,1002.73,VALID,0,VALID,77.1966,VALID,0,VALID,26.9167,VALID,349,VALID,1.41953,
2009-10-29, 00:18:04,VALID,1002.74,VALID,0,VALID,77.1585,VALID,0,VALID,26.8973,VALID,352,VALID,1.41797,
2009-10-29, 00:19:04,VALID,1002.71,VALID,0,VALID,77.2348,VALID,0,VALID,26.8973,VALID,354,VALID,1.38555,
2009-10-29, 00:20:04,VALID,1002.66,VALID,0,VALID,77.0593,VALID,0,VALID,26.8973,VALID,347,VALID,1.19805,
2009-10-29, 00:21:04,VALID,1002.64,VALID,0,VALID,76.9449,VALID,0,VALID,26.9167,VALID,9,VALID,1.23359,
2009-10-29, 00:22:04,VALID,1002.66,VALID,0,VALID,77.1051,VALID,0,VALID,26.9362,VALID,8,VALID,0.931641,
2009-10-29, 00:23:04,VALID,1002.65,VALID,0,VALID,76.8991,VALID,0,VALID,26.9167,VALID,348,VALID,1.58555,
2009-10-29, 00:24:04,VALID,1002.65,VALID,0,VALID,76.8305,VALID,0,VALID,26.9362,VALID,340,VALID,0.674609,
2009-10-29, 00:25:04,VALID,1002.66,VALID,0,VALID,76.9449,VALID,0,VALID,26.9362,VALID,334,VALID,1.27109,
2009-10-29, 00:26:04,VALID,1002.66,VALID,0,VALID,76.9907,VALID,0,VALID,26.9362,VALID,348,VALID,1.13711,
2009-10-29, 00:27:04,VALID,1002.66,VALID,0,VALID,77.0822,VALID,0,VALID,26.9167,VALID,346,VALID,1.08906,
2009-10-29, 00:28:04,VALID,1002.62,VALID,0,VALID,77.2729,VALID,0.100563,VALID,26.9167,VALID,359,VALID,0.733984,
2009-10-29, 00:29:04,VALID,1002.64,VALID,0,VALID,77.1585,VALID,0.100563,VALID,26.8757,VALID,337,VALID,1.06172,
2009-10-29, 00:30:04,VALID,1002.6,VALID,0,VALID,77.2958,VALID,0.100563,VALID,26.8757,VALID,355,VALID,1.22812,
2009-10-29, 00:31:04,VALID,1002.6,VALID,0,VALID,76.9067,VALID,0.100563,VALID,26.8952,VALID,344,VALID,2.08516,
2009-10-29, 00:32:04,VALID,1002.59,VALID,0,VALID,76.8686,VALID,0.100563,VALID,26.9537,VALID,2,VALID,1.34883,
2009-10-29, 00:33:04,VALID,1002.59,VALID,0,VALID,76.5558,VALID,0.100563,VALID,26.9732,VALID,342,VALID,1.10391,
2009-10-29, 00:34:04,VALID,1002.59,VALID,0,VALID,76.2583,VALID,0.100563,VALID,27.0121,VALID,355,VALID,1.50703,
2009-10-29, 00:35:04,VALID,1002.59,VALID,0,VALID,76.327,VALID,0.100563,VALID,27.0316,VALID,355,VALID,0.8,
2009-10-29, 00:36:04,VALID,1002.58,VALID,0,VALID,76.5329,VALID,0.100563,VALID,27.0121,VALID,342,VALID,0.697266,
2009-10-29, 00:37:04,VALID,1002.59,VALID,0,VALID,76.4185,VALID,0.100563,VALID,26.9926,VALID,326,VALID,0.949219,
2009-10-29, 00:38:04,VALID,1002.54,VALID,0,VALID,76.655,VALID,0,VALID,26.9926,VALID,349,VALID,0.899609,
2009-10-29, 00:39:04,VALID,1002.52,VALID,0,VALID,76.7771,VALID,0.100563,VALID,26.9537,VALID,352,VALID,1.08828,
2009-10-29, 00:40:04,VALID,1002.53,VALID,0,VALID,76.9144,VALID,0.100563,VALID,26.9342,VALID,345,VALID,0.947656,
2009-10-29, 00:41:04,VALID,1002.53,VALID,0,VALID,77.1356,VALID,0.100563,VALID,26.8952,VALID,353,VALID,0.927734,
2009-10-29, 00:42:04,VALID,1002.49,VALID,0,VALID,77.2272,VALID,0.100563,VALID,26.8973,VALID,344,VALID,0.672656,
2009-10-29, 00:43:04,VALID,1002.51,VALID,0,VALID,77.3263,VALID,0,VALID,26.8563,VALID,343,VALID,1.49766,
2009-10-29, 00:44:04,VALID,1002.51,VALID,0,VALID,77.3645,VALID,0.100563,VALID,26.8368,VALID,350,VALID,0.777344,
2009-10-29, 00:45:04,VALID,1002.47,VALID,0,VALID,77.4942,VALID,0.100563,VALID,26.7978,VALID,353,VALID,0.754687,
2009-10-29, 00:46:04,VALID,1002.47,VALID,0,VALID,77.456,VALID,0,VALID,26.7978,VALID,342,VALID,0.7,
2009-10-29, 00:47:04,VALID,1002.46,VALID,0,VALID,77.4865,VALID,0.100563,VALID,26.8388,VALID,344,VALID,1.17148,
2009-10-29, 00:48:04,VALID,1002.46,VALID,0,VALID,77.456,VALID,0.100563,VALID,26.7978,VALID,343,VALID,1.34766,
2009-10-29, 00:49:04,VALID,1002.41,VALID,0,VALID,77.5323,VALID,0.100563,VALID,26.7978,VALID,355,VALID,1.38437,
2009-10-29, 00:50:04,VALID,1002.4,VALID,0,VALID,77.7078,VALID,0.100563,VALID,26.7783,VALID,350,VALID,0.715625,
2009-10-29, 00:51:04,VALID,1002.34,VALID,0,VALID,77.807,VALID,0,VALID,26.7589,VALID,356,VALID,0.701953,
2009-10-29, 00:52:04,VALID,1002.33,VALID,0,VALID,77.9595,VALID,0,VALID,26.7394,VALID,360,VALID,0.836719,
2009-10-29, 00:53:04,VALID,1002.35,VALID,0,VALID,77.8222,VALID,0.100563,VALID,26.7004,VALID,346,VALID,1.39297,
2009-10-29, 00:54:04,VALID,1002.33,VALID,0,VALID,77.6544,VALID,0,VALID,26.7004,VALID,24,VALID,1.04375,
2009-10-29, 00:55:04,VALID,1002.37,VALID,0,VALID,77.6239,VALID,0.100563,VALID,26.7199,VALID,355,VALID,1.49531,
2009-10-29, 00:56:04,VALID,1002.37,VALID,0,VALID,77.5933,VALID,0.100563,VALID,26.7804,VALID,358,VALID,0.775391,
2009-10-29, 00:57:04,VALID,1002.34,VALID,0,VALID,77.8604,VALID,0.100563,VALID,26.7783,VALID,299,VALID,0.457812,
2009-10-29, 00:58:04,VALID,1002.36,VALID,0,VALID,77.7841,VALID,0,VALID,26.7414,VALID,351,VALID,0.685938,
2009-10-29, 00:59:04,VALID,1002.36,VALID,0,VALID,77.7688,VALID,0,VALID,26.7414,VALID,11,VALID,0.713281,
2009-10-29, 01:00:04,VALID,1002.4,VALID,0,VALID,77.7307,VALID,0,VALID,26.7219,VALID,309,VALID,0.847266,
2009-10-29, 01:01:04,VALID,1002.36,VALID,0,VALID,78.0434,VALID,0,VALID,26.7629,VALID,20,VALID,1.01055,
2009-10-29, 01:02:04,VALID,1002.36,VALID,0,VALID,77.8832,VALID,0,VALID,26.7414,VALID,340,VALID,1.00859,
2009-10-29, 01:03:04,VALID,1002.34,VALID,0,VALID,78.0053,VALID,0,VALID,26.7394,VALID,360,VALID,1.58555,
2009-10-29, 01:04:04,VALID,1002.3,VALID,0,VALID,77.9748,VALID,0,VALID,26.7609,VALID,349,VALID,0.264453,
2009-10-29, 01:05:04,VALID,1002.31,VALID,0,VALID,78.0434,VALID,0,VALID,26.7414,VALID,352,VALID,0.634375,
2009-10-29, 01:06:04,VALID,1002.29,VALID,0,VALID,77.9977,VALID,0,VALID,26.7629,VALID,310,VALID,0.795703,
2009-10-29, 01:07:04,VALID,1002.25,VALID,0,VALID,77.8375,VALID,0,VALID,26.7609,VALID,347,VALID,1.28789,
2009-10-29, 01:08:04,VALID,1002.27,VALID,0,VALID,78.0129,VALID,0,VALID,26.7824,VALID,18,VALID,0.775391,
2009-10-29, 01:09:04,VALID,1002.25,VALID,0,VALID,78.1045,VALID,0,VALID,26.7414,VALID,355,VALID,0.884766,
2009-10-29, 01:10:04,VALID,1002.23,VALID,0,VALID,78.547,VALID,0,VALID,26.7219,VALID,296,VALID,0.326172,
2009-10-29, 01:11:04,VALID,1002.22,VALID,0,VALID,78.402,VALID,0,VALID,26.685,VALID,282,VALID,0.665625,
2009-10-29, 01:12:04,VALID,1002.21,VALID,0,VALID,78.4325,VALID,0,VALID,26.6635,VALID,351,VALID,1.47734,
2009-10-29, 01:13:04,VALID,1002.23,VALID,0,VALID,78.5775,VALID,0,VALID,26.683,VALID,275,VALID,0.755859,
2009-10-29, 01:14:04,VALID,1002.23,VALID,0,VALID,78.6309,VALID,0,VALID,26.644,VALID,350,VALID,1.09531,
2009-10-29, 01:15:04,VALID,1002.22,VALID,0,VALID,78.7911,VALID,0,VALID,26.6265,VALID,345,VALID,1.02383,
2009-10-29, 01:16:04,VALID,1002.24,VALID,0,VALID,78.9742,VALID,0,VALID,26.607,VALID,353,VALID,0.975781,
2009-10-29, 01:17:04,VALID,1002.22,VALID,0,VALID,78.9437,VALID,0,VALID,26.5661,VALID,339,VALID,1.48711,
2009-10-29, 01:18:04,VALID,1002.2,VALID,0,VALID,78.9894,VALID,0,VALID,26.5855,VALID,12,VALID,1.26875,
2009-10-29, 01:19:04,VALID,1002.18,VALID,0,VALID,79.2412,VALID,0,VALID,26.5681,VALID,349,VALID,1.51992,
2009-10-29, 01:20:04,VALID,1002.18,VALID,0,VALID,79.5006,VALID,0,VALID,26.5271,VALID,354,VALID,1.02539,
2009-10-29, 01:21:04,VALID,1002.17,VALID,0,VALID,79.5311,VALID,0,VALID,26.4881,VALID,356,VALID,1.62344,
2009-10-29, 01:22:04,VALID,1002.16,VALID,0,VALID,79.6684,VALID,0,VALID,26.5076,VALID,358,VALID,0.965625,
2009-10-29, 01:23:04,VALID,1002.13,VALID,0,VALID,79.7599,VALID,0,VALID,26.4687,VALID,339,VALID,0.999219,
2009-10-29, 01:24:04,VALID,1002.14,VALID,0,VALID,79.8439,VALID,0,VALID,26.4687,VALID,357,VALID,1.31172,
2009-10-29, 01:25:04,VALID,1002.15,VALID,0,VALID,79.9202,VALID,0,VALID,26.5076,VALID,340,VALID,0.65,
2009-10-29, 01:26:04,VALID,1002.18,VALID,0,VALID,80.0193,VALID,0,VALID,26.4881,VALID,353,VALID,1.175,
2009-10-29, 01:27:04,VALID,1002.17,VALID,0,VALID,80.1032,VALID,0,VALID,26.4881,VALID,7,VALID,1.55898,
2009-10-29, 01:28:04,VALID,1002.22,VALID,0,VALID,80.1414,VALID,0.100563,VALID,26.5056,VALID,9,VALID,0.552734,
2009-10-29, 01:29:04,VALID,1002.25,VALID,0,VALID,80.149,VALID,0,VALID,26.5251,VALID,357,VALID,1.12578,
2009-10-29, 01:30:04,VALID,1002.23,VALID,0,VALID,80.027,VALID,0.100563,VALID,26.5855,VALID,11,VALID,0.991016,
2009-10-29, 01:31:04,VALID,1002.23,VALID,0,VALID,79.943,VALID,0,VALID,26.5835,VALID,331,VALID,1.13594,
2009-10-29, 01:32:04,VALID,1002.23,VALID,0,VALID,80.1109,VALID,0.100563,VALID,26.642,VALID,359,VALID,1.11602,
2009-10-29, 01:33:04,VALID,1002.25,VALID,0,VALID,79.7371,VALID,0,VALID,26.6809,VALID,341,VALID,1.32734,
2009-10-29, 01:34:04,VALID,1002.21,VALID,0,VALID,79.5006,VALID,0,VALID,26.7414,VALID,343,VALID,1.26289,
2009-10-29, 01:35:04,VALID,1002.24,VALID,0,VALID,79.4472,VALID,0.100563,VALID,26.7589,VALID,340,VALID,1.62031,
2009-10-29, 01:36:04,VALID,1002.27,VALID,0,VALID,79.3556,VALID,0.100563,VALID,26.7783,VALID,346,VALID,2.02383,
2009-10-29, 01:37:04,VALID,1002.28,VALID,0,VALID,79.1725,VALID,0,VALID,26.8173,VALID,349,VALID,1.16953,
2009-10-29, 01:38:04,VALID,1002.31,VALID,0,VALID,79.1191,VALID,0,VALID,26.8173,VALID,342,VALID,1.21484,
2009-10-29, 01:39:04,VALID,1002.34,VALID,0,VALID,78.9971,VALID,0.100563,VALID,26.8173,VALID,331,VALID,1.41016,
2009-10-29, 01:40:04,VALID,1002.33,VALID,0,VALID,79.1191,VALID,0.100563,VALID,26.8173,VALID,356,VALID,2.32695,
2009-10-29, 01:41:04,VALID,1002.36,VALID,0,VALID,79.2107,VALID,0,VALID,26.8173,VALID,343,VALID,1.0707,
2009-10-29, 01:42:04,VALID,1002.39,VALID,0,VALID,79.4166,VALID,0,VALID,26.8173,VALID,347,VALID,0.923828,
2009-10-29, 01:43:04,VALID,1002.44,VALID,0,VALID,79.2259,VALID,0,VALID,26.8173,VALID,346,VALID,1.18594,
2009-10-29, 01:44:04,VALID,1002.43,VALID,0,VALID,79.2107,VALID,0.100563,VALID,26.7978,VALID,350,VALID,1.5625,
2009-10-29, 01:45:04,VALID,1002.44,VALID,0,VALID,79.3632,VALID,0,VALID,26.7783,VALID,347,VALID,1.43203,
2009-10-29, 01:46:04,VALID,1002.45,VALID,0,VALID,79.3022,VALID,0.100563,VALID,26.7394,VALID,349,VALID,1.30742,
2009-10-29, 01:47:04,VALID,1002.5,VALID,0,VALID,79.554,VALID,0.100563,VALID,26.7394,VALID,342,VALID,0.908984,
2009-10-29, 01:48:04,VALID,1002.47,VALID,0,VALID,79.7065,VALID,0.100563,VALID,26.7004,VALID,354,VALID,1.01797,
2009-10-29, 01:49:04,VALID,1002.46,VALID,0,VALID,79.7447,VALID,0.100563,VALID,26.6809,VALID,355,VALID,1.34805,
2009-10-29, 01:50:04,VALID,1002.47,VALID,0,VALID,80.0117,VALID,0.100563,VALID,26.683,VALID,345,VALID,0.732422,
2009-10-29, 01:51:04,VALID,1002.45,VALID,0,VALID,80.0804,VALID,0.100563,VALID,26.642,VALID,336,VALID,1.02188,
2009-10-29, 01:52:04,VALID,1002.42,VALID,0,VALID,80.2177,VALID,0,VALID,26.6225,VALID,352,VALID,1.46992,
2009-10-29, 01:53:04,VALID,1002.39,VALID,0,VALID,80.4389,VALID,0,VALID,26.605,VALID,315,VALID,0.680469,
2009-10-29, 01:54:04,VALID,1002.4,VALID,0,VALID,80.6602,VALID,0.100563,VALID,26.5641,VALID,355,VALID,0.601953,
2009-10-29, 01:55:04,VALID,1002.41,VALID,0,VALID,80.8585,VALID,0.100563,VALID,26.5251,VALID,334,VALID,0.993359,
2009-10-29, 01:56:04,VALID,1002.41,VALID,0,VALID,80.9577,VALID,0.100563,VALID,26.5231,VALID,344,VALID,0.916797,
2009-10-29, 01:57:04,VALID,1002.38,VALID,0,VALID,80.7288,VALID,0,VALID,26.5641,VALID,343,VALID,1.14258,
2009-10-29, 01:58:04,VALID,1002.37,VALID,0,VALID,80.7593,VALID,0,VALID,26.5661,VALID,10,VALID,0.920703,
2009-10-29, 01:59:04,VALID,1002.37,VALID,0,VALID,80.9806,VALID,0,VALID,26.5661,VALID,352,VALID,0.738672,
2009-10-29, 02:00:04,VALID,1002.39,VALID,0,VALID,81.1484,VALID,0,VALID,26.5271,VALID,349,VALID,1.0832,
2009-10-29, 02:01:04,VALID,1002.35,VALID,0,VALID,81.0492,VALID,0,VALID,26.4881,VALID,346,VALID,1.68281,
2009-10-29, 02:02:04,VALID,1002.36,VALID,0,VALID,81.1942,VALID,0,VALID,26.4881,VALID,343,VALID,1.22695,
2009-10-29, 02:03:04,VALID,1002.36,VALID,0,VALID,81.3467,VALID,0,VALID,26.4687,VALID,343,VALID,1.41758,
2009-10-29, 02:04:04,VALID,1002.36,VALID,0,VALID,81.4688,VALID,0,VALID,26.4492,VALID,352,VALID,1.47773,
2009-10-29, 02:05:04,VALID,1002.38,VALID,0,VALID,81.5832,VALID,0,VALID,26.4297,VALID,346,VALID,1.62617,
2009-10-29, 02:06:04,VALID,1002.37,VALID,0,VALID,81.8426,VALID,0,VALID,26.4102,VALID,7,VALID,0.839844,
2009-10-29, 02:07:04,VALID,1002.37,VALID,0,VALID,81.8655,VALID,0,VALID,26.3907,VALID,340,VALID,1.35039,
2009-10-29, 02:08:04,VALID,1002.36,VALID,0,VALID,82.0562,VALID,0,VALID,26.3713,VALID,350,VALID,1.01641,
2009-10-29, 02:09:04,VALID,1002.36,VALID,0,VALID,82.1936,VALID,0,VALID,26.3518,VALID,360,VALID,1.89727,
2009-10-29, 02:10:04,VALID,1002.36,VALID,0,VALID,82.3766,VALID,0,VALID,26.3128,VALID,4,VALID,1.18711,
2009-10-29, 02:11:04,VALID,1002.31,VALID,0,VALID,82.3538,VALID,0,VALID,26.3323,VALID,313,VALID,1.11094,
2009-10-29, 02:12:04,VALID,1002.33,VALID,0,VALID,82.3614,VALID,0,VALID,26.3323,VALID,330,VALID,0.780859,
2009-10-29, 02:13:04,VALID,1002.33,VALID,0,VALID,82.4072,VALID,0,VALID,26.3323,VALID,302,VALID,0.273828,
2009-10-29, 02:14:04,VALID,1002.3,VALID,0,VALID,82.5445,VALID,0,VALID,26.3323,VALID,352,VALID,0.975781,
2009-10-29, 02:15:04,VALID,1002.24,VALID,0,VALID,82.8649,VALID,0,VALID,26.3323,VALID,355,VALID,0.886328,
2009-10-29, 02:16:04,VALID,1002.22,VALID,0,VALID,82.7962,VALID,0,VALID,26.3128,VALID,348,VALID,1.77305,
2009-10-29, 02:17:04,VALID,1002.16,VALID,0,VALID,82.7047,VALID,0,VALID,26.3518,VALID,330,VALID,1.23477,
2009-10-29, 02:18:04,VALID,1002.14,VALID,0,VALID,82.6437,VALID,0,VALID,26.3713,VALID,359,VALID,1.04961,
2009-10-29, 02:19:04,VALID,1002.12,VALID,0,VALID,82.7581,VALID,0,VALID,26.3713,VALID,350,VALID,0.919141,
2009-10-29, 02:20:04,VALID,1002.11,VALID,0,VALID,82.8725,VALID,0,VALID,26.3733,VALID,351,VALID,1.20547,
2009-10-29, 02:21:04,VALID,1002.09,VALID,0,VALID,82.9259,VALID,0,VALID,26.3323,VALID,336,VALID,1.26875,
2009-10-29, 02:22:04,VALID,1002.11,VALID,0,VALID,83.0022,VALID,0,VALID,26.3538,VALID,353,VALID,0.866016,
2009-10-29, 02:23:04,VALID,1002.12,VALID,0,VALID,83.0251,VALID,0,VALID,26.3128,VALID,327,VALID,0.726563,
2009-10-29, 02:24:04,VALID,1002.07,VALID,0,VALID,83.109,VALID,0,VALID,26.3108,VALID,351,VALID,1.46094,
2009-10-29, 02:25:04,VALID,1002.06,VALID,0,VALID,83.1243,VALID,0,VALID,26.3323,VALID,351,VALID,1.05625,
2009-10-29, 02:26:04,VALID,1002.04,VALID,0,VALID,83.0632,VALID,0,VALID,26.3323,VALID,341,VALID,0.697266,
2009-10-29, 02:27:04,VALID,1001.97,VALID,0,VALID,83.1167,VALID,0,VALID,26.3303,VALID,2,VALID,0.716797,
2009-10-29, 02:28:04,VALID,1001.98,VALID,0,VALID,83.109,VALID,0,VALID,26.3323,VALID,352,VALID,1.1418,
2009-10-29, 02:29:04,VALID,1001.94,VALID,0,VALID,83.0861,VALID,0,VALID,26.3518,VALID,337,VALID,1.09844,
2009-10-29, 02:30:04,VALID,1001.93,VALID,0,VALID,83.048,VALID,0,VALID,26.3518,VALID,351,VALID,1.21523,
2009-10-29, 02:31:04,VALID,1001.94,VALID,0,VALID,83.0556,VALID,0,VALID,26.3713,VALID,350,VALID,0.710547,
2009-10-29, 02:32:04,VALID,1001.95,VALID,0,VALID,83.0632,VALID,0,VALID,26.3518,VALID,332,VALID,1.37812,
2009-10-29, 02:33:04,VALID,1001.93,VALID,0,VALID,83.0861,VALID,0,VALID,26.3518,VALID,347,VALID,0.517578,
2009-10-29, 02:34:04,VALID,1001.96,VALID,0,VALID,83.0175,VALID,0,VALID,26.3713,VALID,343,VALID,1.06211,
2009-10-29, 02:35:04,VALID,1001.94,VALID,0,VALID,83.0632,VALID,0,VALID,26.3927,VALID,344,VALID,1.20234,
2009-10-29, 02:36:04,VALID,1001.9,VALID,0,VALID,83.0785,VALID,0,VALID,26.3713,VALID,8,VALID,1.45234,
2009-10-29, 02:37:04,VALID,1001.89,VALID,0,VALID,83.0632,VALID,0,VALID,26.3713,VALID,356,VALID,1.06914,
2009-10-29, 02:38:04,VALID,1001.91,VALID,0,VALID,83.1853,VALID,0,VALID,26.3498,VALID,355,VALID,1.16875,
2009-10-29, 02:39:04,VALID,1001.95,VALID,0,VALID,83.1548,VALID,0,VALID,26.3713,VALID,357,VALID,0.564062,
2009-10-29, 02:40:04,VALID,1001.97,VALID,0,VALID,83.2845,VALID,0,VALID,26.3518,VALID,357,VALID,1.28594,
2009-10-29, 02:41:04,VALID,1002,VALID,0,VALID,83.3074,VALID,0,VALID,26.3498,VALID,347,VALID,1.15625,
2009-10-29, 02:42:04,VALID,1001.99,VALID,0,VALID,83.2921,VALID,0,VALID,26.3518,VALID,354,VALID,1.41367,
2009-10-29, 02:43:04,VALID,1001.98,VALID,0,VALID,83.2158,VALID,0,VALID,26.3518,VALID,339,VALID,1.24492,
2009-10-29, 02:44:04,VALID,1002,VALID,0,VALID,83.2616,VALID,0,VALID,26.3323,VALID,354,VALID,1.13281,
2009-10-29, 02:45:04,VALID,1002.01,VALID,0,VALID,83.3074,VALID,0,VALID,26.2933,VALID,353,VALID,0.950781,
2009-10-29, 02:46:04,VALID,1002.02,VALID,0,VALID,83.4065,VALID,0,VALID,26.2739,VALID,351,VALID,1.02148,
2009-10-29, 02:47:04,VALID,1002,VALID,0,VALID,83.46,VALID,0,VALID,26.2544,VALID,350,VALID,1.46172,
2009-10-29, 02:48:04,VALID,1002,VALID,0,VALID,83.6507,VALID,0,VALID,26.2369,VALID,359,VALID,1.36289,
2009-10-29, 02:49:04,VALID,1002.01,VALID,0,VALID,83.8109,VALID,0,VALID,26.1959,VALID,357,VALID,1.04375,
2009-10-29, 02:50:04,VALID,1002,VALID,0,VALID,84.0092,VALID,0,VALID,26.157,VALID,345,VALID,1.57695,
2009-10-29, 02:51:04,VALID,1001.98,VALID,0,VALID,83.9253,VALID,0,VALID,26.1784,VALID,357,VALID,1.06992,
2009-10-29, 02:52:04,VALID,1002,VALID,0,VALID,84.0245,VALID,0,VALID,26.1765,VALID,353,VALID,1.30352,
2009-10-29, 02:53:04,VALID,1002,VALID,0,VALID,84.2076,VALID,0,VALID,26.1959,VALID,3,VALID,1.89883,
2009-10-29, 02:54:04,VALID,1002.04,VALID,0,VALID,84.0245,VALID,0,VALID,26.2544,VALID,352,VALID,1.25312,
2009-10-29, 02:55:04,VALID,1002.06,VALID,0,VALID,83.8414,VALID,0,VALID,26.2933,VALID,18,VALID,0.944141,
2009-10-29, 02:56:04,VALID,1002.11,VALID,0,VALID,83.9024,VALID,0,VALID,26.2544,VALID,1,VALID,0.597266,
2009-10-29, 02:57:04,VALID,1002.11,VALID,0,VALID,84.1923,VALID,0,VALID,26.2544,VALID,359,VALID,1.13242,
2009-10-29, 02:58:04,VALID,1002.11,VALID,0,VALID,84.1542,VALID,0,VALID,26.2544,VALID,309,VALID,1.46914,
2009-10-29, 02:59:04,VALID,1002.14,VALID,0,VALID,84.1771,VALID,0,VALID,26.2933,VALID,354,VALID,1.44766,
2009-10-29, 03:00:04,VALID,1002.13,VALID,0,VALID,83.9558,VALID,0,VALID,26.3733,VALID,337,VALID,1.0168,
2009-10-29, 03:01:04,VALID,1002.12,VALID,0,VALID,83.8872,VALID,0,VALID,26.3907,VALID,360,VALID,1.16758,
2009-10-29, 03:02:04,VALID,1002.14,VALID,0,VALID,83.7575,VALID,0,VALID,26.4122,VALID,323,VALID,1.24414,
2009-10-29, 03:03:04,VALID,1002.12,VALID,0,VALID,83.727,VALID,0,VALID,26.3907,VALID,348,VALID,1.6957,
2009-10-29, 03:04:04,VALID,1002.15,VALID,0,VALID,83.7041,VALID,0,VALID,26.3907,VALID,354,VALID,1.54844,
2009-10-29, 03:05:04,VALID,1002.18,VALID,0,VALID,83.6964,VALID,0,VALID,26.4102,VALID,353,VALID,1.49219,
2009-10-29, 03:06:04,VALID,1002.19,VALID,0,VALID,83.6964,VALID,0,VALID,26.3907,VALID,351,VALID,0.861719,
2009-10-29, 03:07:04,VALID,1002.2,VALID,0,VALID,83.7804,VALID,0,VALID,26.3713,VALID,353,VALID,0.891406,
2009-10-29, 03:08:04,VALID,1002.2,VALID,0,VALID,83.8795,VALID,0,VALID,26.3518,VALID,356,VALID,0.671875,
2009-10-29, 03:09:04,VALID,1002.24,VALID,0,VALID,84.0474,VALID,0,VALID,26.3323,VALID,360,VALID,1.40195,
2009-10-29, 03:10:04,VALID,1002.22,VALID,0,VALID,84.1237,VALID,0,VALID,26.2913,VALID,17,VALID,0.866016,
2009-10-29, 03:11:04,VALID,1002.23,VALID,0,VALID,84.1771,VALID,0,VALID,26.2719,VALID,308,VALID,0.883594,
2009-10-29, 03:12:04,VALID,1002.28,VALID,0,VALID,84.1923,VALID,0,VALID,26.2933,VALID,334,VALID,0.600391,
2009-10-29, 03:13:04,VALID,1002.32,VALID,0,VALID,84.2076,VALID,0,VALID,26.2544,VALID,353,VALID,0.584766,
2009-10-29, 03:14:04,VALID,1002.39,VALID,0,VALID,84.3373,VALID,0,VALID,26.2349,VALID,342,VALID,1.57305,
2009-10-29, 03:15:04,VALID,1002.42,VALID,0,VALID,84.3144,VALID,0,VALID,26.2329,VALID,343,VALID,0.648047,
2009-10-29, 03:16:04,VALID,1002.47,VALID,0,VALID,84.3525,VALID,0,VALID,26.2349,VALID,322,VALID,0.334375,
2009-10-29, 03:17:04,VALID,1002.51,VALID,0,VALID,84.4441,VALID,0,VALID,26.2349,VALID,349,VALID,0.418359,
2009-10-29, 03:18:04,VALID,1002.53,VALID,0,VALID,84.5433,VALID,0,VALID,26.2349,VALID,338,VALID,0.8875,
2009-10-29, 03:19:04,VALID,1002.55,VALID,0,VALID,84.5814,VALID,0,VALID,26.2154,VALID,344,VALID,0.635156,
2009-10-29, 03:20:04,VALID,1002.59,VALID,0,VALID,84.7035,VALID,0,VALID,26.1765,VALID,343,VALID,0.642969,
2009-10-29, 03:21:04,VALID,1002.6,VALID,0,VALID,84.8789,VALID,0,VALID,26.1375,VALID,351,VALID,0.657812,
2009-10-29, 03:22:04,VALID,1002.64,VALID,0,VALID,84.9857,VALID,0,VALID,26.118,VALID,330,VALID,0.851953,
2009-10-29, 03:23:04,VALID,1002.67,VALID,0,VALID,85.0391,VALID,0,VALID,26.118,VALID,344,VALID,0.913281,
2009-10-29, 03:24:04,VALID,1002.66,VALID,0,VALID,85.0925,VALID,0,VALID,26.0791,VALID,345,VALID,1.09297,
2009-10-29, 03:25:04,VALID,1002.63,VALID,0,VALID,85.1917,VALID,0,VALID,26.0791,VALID,349,VALID,0.770312,
2009-10-29, 03:26:04,VALID,1002.62,VALID,0,VALID,85.2909,VALID,0,VALID,26.0596,VALID,357,VALID,0.733203,
2009-10-29, 03:27:04,VALID,1002.64,VALID,0,VALID,85.4053,VALID,0,VALID,26.0596,VALID,354,VALID,1.59063,
2009-10-29, 03:28:04,VALID,1002.63,VALID,0,VALID,85.3367,VALID,0,VALID,26.1005,VALID,339,VALID,1.40781,
2009-10-29, 03:29:04,VALID,1002.63,VALID,0,VALID,85.3977,VALID,0,VALID,26.0985,VALID,344,VALID,1.4832,
2009-10-29, 03:30:04,VALID,1002.63,VALID,0,VALID,85.3443,VALID,0,VALID,26.0985,VALID,335,VALID,0.838281,
2009-10-29, 03:31:04,VALID,1002.6,VALID,0,VALID,85.4129,VALID,0,VALID,26.0771,VALID,352,VALID,0.4375,
2009-10-29, 03:32:04,VALID,1002.57,VALID,0,VALID,85.6037,VALID,0,VALID,26.118,VALID,348,VALID,0.755469,
2009-10-29, 03:33:04,VALID,1002.56,VALID,0,VALID,85.4663,VALID,0,VALID,26.1375,VALID,287,VALID,0.919922,
2009-10-29, 03:34:04,VALID,1002.57,VALID,0,VALID,85.3672,VALID,0,VALID,26.157,VALID,332,VALID,0.316016,
2009-10-29, 03:35:04,VALID,1002.54,VALID,0,VALID,85.5274,VALID,0,VALID,26.1765,VALID,355,VALID,1.47695,
2009-10-29, 03:36:04,VALID,1002.56,VALID,0,VALID,85.4358,VALID,0,VALID,26.194,VALID,360,VALID,0.597656,
2009-10-29, 03:37:04,VALID,1002.54,VALID,0,VALID,85.3595,VALID,0,VALID,26.2329,VALID,337,VALID,0.7,
2009-10-29, 03:38:04,VALID,1002.53,VALID,0,VALID,85.2375,VALID,0,VALID,26.2329,VALID,337,VALID,0.946094,
2009-10-29, 03:39:04,VALID,1002.51,VALID,0,VALID,85.1383,VALID,0,VALID,26.2739,VALID,342,VALID,0.441016,
2009-10-29, 03:40:04,VALID,1002.5,VALID,0,VALID,85.2375,VALID,0,VALID,26.2524,VALID,326,VALID,0.698828,
2009-10-29, 03:41:04,VALID,1002.53,VALID,0,VALID,85.2146,VALID,0,VALID,26.2739,VALID,357,VALID,0.855469,
2009-10-29, 03:42:04,VALID,1002.5,VALID,0,VALID,85.123,VALID,0,VALID,26.2933,VALID,349,VALID,1.59414,
2009-10-29, 03:43:04,VALID,1002.52,VALID,0,VALID,85.0544,VALID,0,VALID,26.3128,VALID,340,VALID,0.89375,